Regional Weather Roundup
Issued by NWS Cleveland, OH

Home | Current Version | Previous Version | Text Only | Print | Product List | Glossary Off
Versions: 1 2 3 4 5 6 7 8 9 10 11 12 13 14 15 16 17 18 19 20 21 22 23 24 25 26 27 28 29 30 31 32 33 34 35 36 37 38 39 40 41 42 43 44 45 46 47 48 49 50

000
ASUS41 KCLE 272010
RWRCLE
OHIO REGIONAL WEATHER ROUNDUP
NATIONAL WEATHER SERVICE WILMINGTON, OH
400 PM EDT SAT MAY 27 2017

NOTE: "FAIR" INDICATES FEW OR NO CLOUDS BELOW 12,000 FEET WITH NO
SIGNIFICANT WEATHER AND/OR OBSTRUCTIONS TO VISIBILITY.

OHZ001>008-015>018-024>027-034-035-043-044-272100-
   NORTHWEST OHIO

CITY           SKY/WX    TMP DP  RH WIND       PRES   REMARKS
DEFIANCE       CLOUDY    71  61  70 E6        29.89S
FINDLAY        CLOUDY    74  61  63 S3        29.87S
TOLEDO EXPRESS PTSUNNY   73  56  54 E8        29.89F
TOLEDO EXEC    FAIR      73  56  54 NE12G18   29.90F
LIMA           CLOUDY    75  65  70 E5        29.87F
$$

OHZ009>014-019>023-028>033-038-089-272100-
   NORTHEAST OHIO

CITY           SKY/WX    TMP DP  RH WIND       PRES   REMARKS
CLE-HOPKINS    FAIR      73  54  51 N12       29.91F
CLE-LAKEFRONT  FAIR      66  56  70 N10       29.90R
CUY CO. ARPT   MOSUNNY   73  57  56 NE12      29.90F
LORAIN-ELYRIA  FAIR      70  53  54 NE10      29.90S
ASHTABULA      FAIR      70  51  51 CALM      29.91F
AKRON-CANTON   PTSUNNY   75  59  57 NE3       29.89F
WOOSTER        PTSUNNY   71  60  68 SE6       29.89F
MANSFIELD      PTSUNNY   74  60  61 S7        29.89F
YOUNGSTOWN     PTSUNNY   71  54  54 CALM      29.89F
$$

OHZ042-051>053-060>062-070>072-077>081-272100-
  SOUTHWEST OHIO

CITY           SKY/WX    TMP DP  RH WIND       PRES   REMARKS
CINC-COVINGTON PTSUNNY   82  68  62 W10       29.86F
CINC-LUNKEN    FAIR      83  70  64 W10       29.84F
HAMILTON       FAIR      83  70  64 SW8       29.85F
DAYTON         PTSUNNY   79  64  60 NW10G17   29.86F
WRIGHT-PAT AFB PTSUNNY   80  67  66 W8        29.84F
DAYTON GENERAL FAIR      80  65  59 SW5       29.85F
WILMINGTON     FAIR      80  68  66 SW7       29.85F
$$

OHZ036-037-039>041-045>050-054>059-063>069-073>076-082>088-272100-
  CENTRAL AND SOUTHEAST OHIO

CITY           SKY/WX    TMP DP  RH WIND       PRES   REMARKS
COLUMBUS       CLOUDY    77  66  68 W3        29.86F
OSU AIRPORT    CLOUDY    76  66  71 NW3       29.86F
BOLTON FIELD   MOSUNNY   79  68  69 NW5       29.87S
RICKENBACK AFB PTSUNNY   77  67  70 CALM      29.85F
NEWARK         CLOUDY    76  64  66 CALM      29.86F
MARION         FAIR      77  61  57 N5        29.88F
LANCASTER      PTSUNNY   80  68  66 N9        29.86F
ZANESVILLE     PTSUNNY   77  64  64 N6        29.87F
NEW PHILLY     CLOUDY    73  63  70 CALM      29.88F
$$




USA.gov is the U.S. government's official web portal to all federal, state and local government web resources and services.